www.pogodaiklimat.ru
ПОГОДА в Дукенте

Архив погоды в Дукенте (Ташкентская область, Узбекистан)

Время
и дата
23:30 16.04
23:40 16.04
23:50 16.04
00:00 17.04
00:20 17.04
00:30 17.04
00:40 17.04
01:00 17.04
01:10 17.04
01:20 17.04
01:30 17.04
01:40 17.04
01:50 17.04
02:10 17.04
02:20 17.04
02:30 17.04
02:50 17.04
03:00 17.04
03:10 17.04
03:20 17.04
03:30 17.04
03:40 17.04
03:50 17.04
04:00 17.04
04:20 17.04
04:30 17.04
04:40 17.04
04:50 17.04
05:10 17.04
05:20 17.04
05:40 17.04
06:00 17.04
06:10 17.04
06:20 17.04
06:40 17.04
07:00 17.04
07:10 17.04
07:20 17.04
08:40 17.04
08:50 17.04
10:40 17.04
16:20 17.04
16:40 17.04
16:50 17.04
17:00 17.04
17:10 17.04
17:30 17.04
17:40 17.04
17:50 17.04
18:00 17.04
18:20 17.04
18:30 17.04
18:50 17.04
19:00 17.04
19:10 17.04
19:20 17.04
19:30 17.04
19:40 17.04
19:50 17.04
20:00 17.04
20:10 17.04
20:20 17.04
20:30 17.04
20:40 17.04
20:50 17.04
21:10 17.04
21:30 17.04
21:40 17.04
21:50 17.04
22:10 17.04
22:20 17.04
22:30 17.04
22:50 17.04
23:00 17.04
23:10 17.04
23:20 17.04
23:30 17.04
23:40 17.04
23:50 17.04
00:10 18.04
00:50 18.04
01:00 18.04
01:20 18.04
01:30 18.04
01:50 18.04
02:00 18.04
02:10 18.04
02:30 18.04
02:40 18.04
02:50 18.04
03:00 18.04
03:20 18.04
03:30 18.04
03:40 18.04
03:50 18.04
04:00 18.04
04:10 18.04
04:20 18.04
04:30 18.04
04:50 18.04
05:00 18.04
05:40 18.04
06:00 18.04
06:10 18.04
06:20 18.04
06:30 18.04
06:50 18.04
07:00 18.04
07:10 18.04
07:20 18.04
07:50 18.04
08:10 18.04
08:30 18.04
11:00 18.04
11:30 18.04
12:20 20.04
12:30 20.04
12:40 20.04
12:50 20.04
13:00 20.04
13:10 20.04
13:20 20.04
13:30 20.04
13:40 20.04
13:50 20.04
14:00 20.04
14:10 20.04
14:20 20.04
14:30 20.04
14:40 20.04
14:50 20.04
15:00 20.04
15:10 20.04
15:20 20.04
15:30 20.04
15:40 20.04
15:50 20.04
16:00 20.04
16:10 20.04
16:20 20.04
16:30 20.04
16:40 20.04
16:50 20.04
17:00 20.04
Ветер
(напр.,м/с)
Видимость Явления Солнечная радиация
(Вт/м2)
Т
(С)
Тd
(С)
f
(%)
Тe
(С)
Тes
(С)
Комфортность P
(гПа)
Po
(гПа)
Тmin
(С)
Tmax
(С)
R
(мм)
З 1.3
{2.8}
+4.0 +4.0 100 +2 +2 1030.9 807.5 +4.0 +3.3
З 1.0
{2.0}
+3.8 +3.8 100 +2 +2 1030.9 807.5 +4.1 +3.8
ЮЗ 1.5
{2.3}
+4.0 +4.0 100 +2 +2 1030.7 807.4 +4.0 +3.8
ЮЗ 2.2
{3.2}
+4.2 +4.2 100 +1 +1 1030.6 807.3 +4.2 +4.0
ЮЗ 2.7
{4.4}
+4.4 +4.4 100 +1 +1 1030.5 807.2 +4.4 +4.2
ЮЗ 2.3
{3.6}
+4.3 +4.3 100 +1 +1 1030.3 807.0 +4.5 +4.3
ЮЗ 2.3
{3.5}
+4.4 +4.4 100 +1 +1 1030.1 806.9 +4.5 +4.3
ЮЗ 2.8
{4.2}
+4.4 +4.4 100 +1 +1 1030.0 806.8 +4.5 +4.3
ЮЗ 3.0
{4.5}
+4.5 +4.5 100 +1 +1 1030.0 806.8 +4.6 +4.4
ЮЗ 2.6
{4.4}
+4.4 +4.4 100 +1 +1 1029.9 806.7 +4.6 +4.4
ЮЗ 2.6
{3.7}
+4.3 +4.3 100 +1 +1 1029.9 806.7 +4.4 +4.3
ЮЗ 2.1
{3.5}
+4.3 +4.3 100 +1 +1 1029.7 806.5 +4.4 +4.2
З 1.2
{2.1}
+4.3 +4.3 100 +2 +2 1029.7 806.5 +4.5 +4.3
СЗ 1.3
{1.9}
+4.4 +4.4 100 +2 +2 1029.3 806.2 +4.4 +4.2
СЗ 1.8
{2.9}
+4.2 +4.2 100 +1 +1 1029.2 806.1 +4.5 +4.2
СЗ 1.8
{2.9}
+4.4 +4.4 100 +2 +2 1029.0 806.0 +4.4 +4.1
СЗ 1.2
{1.9}
+4.4 +4.4 100 +2 +2 1028.9 805.9 +4.4 +4.1
СЗ 1.3
{2.4}
+4.3 +4.3 100 +2 +2 1028.8 805.8 +4.4 +4.3
СЗ 2.3
{3.3}
+4.6 +4.6 100 +1 +1 1028.7 805.7 +4.6 +4.3
СЗ 2.0
{3.1}
+4.8 +4.4 97 +2 +2 1028.6 805.6 +4.7 +4.6
СЗ 1.3
{2.3}
+4.8 +4.0 95 +3 +3 1028.4 805.5 +4.8 +4.8
СЗ 1.0
{1.7}
+5.1 +3.5 89 +4 +4 1028.4 805.5 +5.1 +4.8
З 0.6
{1.6}
+4.8 +3.9 94 +4 +4 1028.3 805.4 +5.1 +4.8
ЮЗ 1.2
{2.1}
+4.7 +4.1 96 +3 +3 1028.2 805.3 +4.8 +4.7
ЮЗ 2.0
{2.9}
+4.5 +4.2 98 +2 +2 1028.2 805.3 +4.5 +4.3
ЮЗ 1.5
{2.4}
+4.7 +3.5 92 +2 +2 1028.2 805.3 +4.7 +4.5
СЗ 1.0
{2.5}
+4.7 +2.9 88 +3 +3 1028.1 805.2 +5.0 +4.7
СЗ 0.9
{1.9}
+4.7 +2.4 85 +4 +4 1028.1 805.2 +4.7 +4.6
ЮЗ 0.9
{1.5}
+4.8 +2.4 84 +4 +4 1028.2 805.3 +4.9 +4.8
ЮЗ 1.4
{2.5}
+4.8 +2.1 83 +3 +3 1028.4 805.5 +4.8 +4.7
ЮЗ 1.4
{2.3}
+4.7 +2.3 85 +3 +3 1028.7 805.7 +4.7 +4.5
ЮЗ 1.3
{2.7}
+4.6 +2.1 83 +3 +3 1028.8 805.8 +4.7 +4.6
ЮЗ 1.6
{2.5}
+4.7 +1.6 80 +3 +3 1029.0 806.0 +4.7 +4.6
ЮЗ 0.8
{2.0}
+5.2 +1.1 75 +5 +5 1029.0 806.0 +5.2 +4.7
Ю 0.9
{1.8}
+5.7 +4.1 89 +5 +5 1029.2 806.1 +5.7 +5.6
ЮВ 0.9
{1.7}
+6.2 +4.3 88 +5 +5 1029.4 806.3 +6.2 +6.0
ЮВ 0.6
{1.8}
+6.5 +3.5 81 +6 +6 1029.4 806.3 +6.5 +6.2
ЮВ 0.8
{1.9}
+6.6 +4.1 84 +6 +6 1029.5 806.4 +6.6 +6.4
ЮВ 1.3
{2.8}
+7.8 +6.1 89 +6 +6 1029.2 806.1 +8.1 +7.7
ЮВ 1.6
{3.4}
+8.8 +8.8 100 +7 +7 1029.3 806.2 +8.8 +7.8
ЮВ 2.2
{4.2}
+11.3 +8.3 82 +10 +10 1029.5 806.3 +11.3 +10.9
Ю 3.0
{4.8}
+11.3 +9.4 88 +9 +9 1027.0 804.2 +11.3 +10.7
Ю 2.8
{5.1}
+11.7 +10.9 95 +10 +10 1027.0 804.2 +11.7 +11.2
ЮВ 2.5
{4.9}
+11.0 +11.0 100 +9 +9 1027.0 804.2 +11.7 +11.0
Ю 2.5
{4.7}
+10.4 +10.4 100 +8 +8 1027.0 804.2 +11.0 +10.4
Ю 2.1
{3.9}
+10.0 +10.0 100 +8 +8 1027.0 804.2 +10.4 +10.0
Ю 1.7
{3.3}
+9.4 +9.4 100 +8 +8 1027.0 804.2 +9.7 +9.4
Ю 1.5
{3.2}
+9.2 +9.2 100 +8 +8 1027.0 804.3 +9.4 +9.3
Ю 1.3
{3.3}
+8.9 +8.9 100 +8 +8 1026.8 804.2 +9.2 +8.9
Ю 1.1
{2.1}
+8.6 +8.6 100 +8 +8 1026.8 804.2 +8.9 +8.6
С 0.3
{0.9}
+8.6 +8.6 100 +9 +9 1026.8 804.2 +8.6 +8.5
С 0.7
{1.3}
+8.4 +8.4 100 +8 +8 1026.8 804.2 +8.6 +8.4
СЗ 2.0
{2.7}
+8.2 +8.2 100 +6 +6 1026.8 804.2 +8.2 +8.2
СЗ 2.0
{2.5}
+8.0 +8.0 100 +6 +6 1026.7 804.1 +8.2 +8.0
С 1.5
{2.0}
+8.0 +8.0 100 +6 +6 1026.7 804.1 +8.0 +8.0
С 1.9
{2.5}
+7.9 +7.9 100 +6 +6 1026.7 804.1 +8.0 +7.9
СЗ 1.5
{2.1}
+7.9 +7.9 100 +6 +6 1026.7 804.1 +7.9 +7.9
С 1.0
{1.9}
+8.0 +8.0 100 +7 +7 1026.8 804.2 +8.0 +7.9
С 0.8
{1.6}
+7.9 +7.9 100 +7 +7 1026.8 804.2 +8.0 +7.9
С 0.7
{1.5}
+7.8 +7.8 100 +7 +7 1026.8 804.2 +7.9 +7.8
З 0.3
{0.7}
+7.8 +7.8 100 +9 +9 1026.8 804.2 +7.8 +7.8
С 0.5
{1.3}
+7.7 +7.7 100 +8 +8 1027.0 804.3 +7.8 +7.7
С 1.1
{1.8}
+7.6 +7.6 100 +6 +6 1027.0 804.3 +7.7 +7.5
СЗ 0.6
{1.6}
+7.9 +7.9 100 +8 +8 1026.8 804.2 +7.9 +7.6
ЮЗ 0.7
{1.3}
+8.0 +8.0 100 +8 +8 1026.8 804.2 +8.0 +7.9
ЮЗ 0.8
{1.5}
+7.7 +7.7 100 +7 +7 1026.8 804.2 +7.8 +7.6
З 1.3
{2.6}
+8.3 +6.3 87 +7 +7 1026.7 804.1 +8.3 +8.1
СЗ 1.1
{1.7}
+8.2 +6.3 88 +7 +7 1026.7 804.1 +8.3 +8.2
СЗ 1.0
{1.7}
+8.3 +5.9 85 +8 +8 1026.6 804.0 +8.3 +8.2
СЗ 1.4
{2.0}
+8.2 +4.9 80 +7 +7 1026.5 803.9 +8.2 +8.0
СЗ 1.1
{1.8}
+8.1 +5.2 82 +7 +7 1026.5 803.9 +8.2 +8.1
СЗ 1.9
{2.6}
+8.0 +4.8 80 +6 +6 1026.4 803.8 +8.1 +7.9
СЗ 2.1
{3.0}
+8.4 +2.2 65 +7 +7 1026.1 803.6 +8.4 +8.0
СЗ 1.9
{2.5}
+8.4 +1.9 64 +7 +7 1026.1 803.6 +8.6 +8.4
СЗ 1.6
{2.6}
+8.7 +1.0 58 +8 +8 1026.1 803.6 +8.7 +8.4
СЗ 1.5
{2.2}
+9.0 +0.6 55 +8 +8 1026.0 803.5 +9.0 +8.7
ЮЗ 0.8
{1.6}
+8.9 +0.8 57 +9 +9 1025.9 803.4 +9.2 +8.9
З 0.8
{1.4}
+8.9 +0.3 55 +9 +9 1025.9 803.4 +8.9 +8.7
СЗ 0.8
{1.8}
+9.0 +0.4 55 +9 +9 1025.6 803.2 +9.1 +8.9
ЮЗ 0.6
{1.8}
+8.8 +0.3 55 +9 +9 1025.4 803.0 +8.9 +8.8
ЮЗ 1.4
{2.2}
+8.7 -0.6 52 +8 +8 1024.9 802.6 +9.0 +8.7
З 1.3
{2.0}
+8.7 -0.3 53 +8 +8 1024.8 802.5 +8.9 +8.7
СЗ 0.8
{1.8}
+8.5 -0.7 52 +9 +9 1024.5 802.3 +8.8 +8.5
СЗ 1.6
{2.8}
+8.4 -0.6 53 +7 +7 1024.4 802.2 +8.5 +8.4
СЗ 1.7
{2.4}
+8.2 -0.9 53 +7 +7 1024.2 802.0 +8.2 +8.1
СЗ 2.0
{3.1}
+8.3 -1.1 52 +7 +7 1024.0 801.9 +8.3 +8.1
С 1.6
{2.7}
+8.2 -1.3 51 +7 +7 1023.9 801.8 +8.3 +8.2
СЗ 1.6
{2.6}
+8.2 -1.7 50 +7 +7 1023.8 801.7 +8.3 +8.2
СЗ 1.9
{3.0}
+8.3 -1.9 48 +7 +7 1023.8 801.7 +8.3 +8.2
СЗ 2.3
{3.3}
+8.3 -2.4 47 +7 +7 1023.7 801.6 +8.3 +8.2
СЗ 1.8
{2.9}
+8.3 -2.5 46 +7 +7 1023.6 801.5 +8.4 +8.2
ЮЗ 1.1
{2.3}
+8.3 -2.4 47 +8 +8 1023.6 801.5 +8.5 +8.3
ЮЗ 1.6
{2.2}
+8.2 -2.6 46 +7 +7 1023.4 801.4 +8.3 +8.2
З 0.7
{1.9}
+8.6 -3.5 42 +9 +9 1023.3 801.3 +8.6 +8.2
С 1.1
{1.8}
+8.4 -3.2 44 +8 +8 1023.3 801.3 +8.6 +8.4
СЗ 1.7
{2.8}
+8.0 -2.6 47 +7 +7 1023.3 801.3 +8.4 +8.0
СЗ 2.4
{3.6}
+7.9 -2.4 48 +6 +6 1023.3 801.3 +8.0 +7.8
СЗ 1.4
{2.3}
+8.1 -3.0 45 +7 +7 1023.2 801.2 +8.2 +7.9
С 1.6
{2.5}
+7.8 -2.8 47 +7 +7 1023.2 801.2 +8.1 +7.8
З 0.6
{1.4}
+8.2 -3.4 44 +9 +9 1023.2 801.2 +8.2 +8.1
ЮЗ 1.3
{2.0}
+7.9 -2.4 48 +7 +7 1023.2 801.2 +8.2 +7.9
ЮЗ 1.7
{2.6}
+7.9 -2.9 46 +7 +7 1023.4 801.4 +7.9 +7.7
СЗ 0.8
{1.4}
+8.4 -4.0 41 +9 +9 1023.4 801.4 +8.3 +8.1
СЗ 1.5
{2.0}
+8.4 -3.7 42 +8 +8 1023.4 801.4 +8.4 +8.3
СЗ 1.5
{2.1}
+8.9 -3.0 43 +8 +8 1023.4 801.4 +8.9 +8.4
С 1.3
{2.1}
+9.6 -2.4 43 +9 +9 1023.4 801.4 +9.5 +8.9
ЮВ 0.6
{1.3}
+10.3 -1.1 45 +11 +11 1023.4 801.3 +10.3 +10.0
В 1.0
{2.0}
+10.6 -2.0 41 +11 +11 1023.3 801.2 +10.6 +10.3
В 0.9
{2.0}
+10.7 -0.5 46 +11 +11 1023.3 801.2 +10.8 +10.6
ЮВ 1.1
{2.2}
+11.0 -1.3 42 +11 +11 1023.3 801.2 +10.9 +10.7
ЮВ 1.4
{3.2}
+12.1 +1.1 47 +12 +12 1023.2 801.1 +12.1 +11.6
ЮВ 1.5
{3.0}
+12.2 -0.4 42 +12 +12 1023.1 801.0 +12.4 +12.2
ЮВ 1.5
{2.9}
+13.1 +3.1 51 +13 +13 1023.1 801.0 +13.1 +12.6
ЮВ 2.5
{5.1}
+16.6 +4.2 44 +17 +17 1022.7 800.7 +16.6 +16.0
Ю 2.7
{5.1}
+16.5 +5.1 47 +16 +16 1022.4 800.5 +17.1 +16.5
ЮВ 2.5
{5.3}
+19.0 +14.8 76 +21 +21 комфорт 1020.5 798.9 +19.0 +18.0
ЮВ 2.9
{5.8}
+19.7 +14.7 73 +22 +22 комфорт 1020.6 799.0 +19.7 +19.0
ЮВ 3.1
{5.4}
+19.9 +15.4 75 +22 +22 комфорт 1020.6 799.0 +19.9 +19.7
ЮВ 3.2
{5.7}
+19.4 +13.8 70 +21 +21 комфорт 1020.6 799.0 +19.9 +19.4
Ю 3.3
{5.3}
+18.5 +13.3 72 +19 +19 1020.6 799.0 +19.4 +18.5
Ю 2.5
{4.6}
+17.5 +14.7 84 +18 +18 1020.7 799.1 +18.5 +17.5
ЮВ 2.6
{4.8}
+17.1 +15.4 90 +17 +17 1020.9 799.2 +17.5 +16.9
Ю 2.8
{4.8}
+16.6 +15.1 91 +16 +16 1020.9 799.2 +17.1 +16.6
Ю 2.7
{5.1}
+15.5 +15.5 100 +15 +15 1020.9 799.2 +16.6 +15.5
Ю 2.8
{5.4}
+14.7 +14.7 100 +14 +14 1020.9 799.2 +15.5 +14.9
ЮВ 2.9
{4.8}
+14.7 +14.7 100 +14 +14 1020.7 799.1 +14.9 +14.7
Ю 2.2
{4.3}
+14.2 +14.2 100 +13 +13 1020.7 799.1 +14.7 +14.2
ЮВ 2.5
{5.0}
+14.5 +14.5 100 +14 +14 1020.9 799.2 +14.5 +14.2
Ю 2.9
{5.2}
+15.1 +15.1 100 +14 +14 1020.7 799.1 +15.1 +14.5
Ю 3.0
{5.5}
+15.6 +15.6 100 +15 +15 1020.7 799.1 +15.9 +15.1
ЮВ 3.0
{5.9}
+14.9 +14.9 100 +14 +14 1020.7 799.1 +15.6 +14.9
ЮВ 2.3
{5.0}
+14.4 +14.4 100 +14 +14 1021.0 799.3 +14.9 +14.4
Ю 3.7
{6.7}
+13.9 +13.9 100 +12 +12 1021.0 799.3 +14.4 +13.9
Ю 3.4
{5.9}
+13.3 +13.3 100 +12 +12 1020.9 799.2 +13.9 +13.3
Ю 3.0
{5.4}
+12.9 +12.9 100 +11 +11 1021.1 799.4 +13.3 +12.9
Ю 2.1
{4.2}
+12.9 +12.9 100 +12 +12 1021.2 799.5 +12.9 +12.7
Ю 3.2
{5.5}
+12.9 +12.9 100 +11 +11 1021.3 799.6 +13.0 +12.9
Ю 3.9
{6.7}
+12.7 +12.7 100 +11 +11 1021.5 799.7 +12.9 +12.7
Ю 3.8
{6.5}
+11.9 +11.9 100 +10 +10 1021.5 799.7 +12.7 +12.0
ЮЗ 3.1
{4.6}
+11.1 +11.1 100 +9 +9 1021.7 799.9 +11.9 +11.1
ЮЗ 2.0
{3.4}
+10.9 +10.9 100 +9 +9 1022.0 800.1 +11.1 +10.9
СЗ 1.4
{2.8}
+11.0 +11.0 100 +10 +10 1021.8 800.0 +11.0 +10.8
СЗ 2.3
{3.8}
+11.0 +11.0 100 +9 +9 1021.8 800.0 +11.0 +10.8
С 2.0
{3.8}
+10.6 +10.6 100 +9 +9 1021.8 800.0 +11.1 +10.6
Местоположение метеостанции Дукент (Ташкентская область, Узбекистан): широта 41.20 долгота 70.08 высота над уровнем моря 0 м.
В архиве по умолчанию представлена погода в Дукенте за последние 1-2 суток. Обновление информации о фактической погоде в базе происходит ежечасно! Архивные данные за месяц целиком и за предыдущие месяцы Вы можете получить, выбрав интересующий диапазон дат из раскрывающегося списка и нажав кнопку "Ввод!".
*Определитесь, кто Вы:
Внимание! Время в таблицах - местное (без учета летнего времени). Для получения всемирного времени необходимо вычесть поправку, которая равна 5 ч.
Смотрите также архив погоды на ближайших метеорологических станциях:
Партнеры нашего сайта:      
Пояснения к столбцам:
  • Ветер - указаны скорость ветра в м/с - средняя за 10 мин, порывы в срок и между сроками (в фигурных скобках) и направление, откуда дует ветер: С - северный,
  • СВ - северо-восточный, В - восточный, ЮВ - юго-восточный, Ю - южный, ЮЗ - юго-западный, З - западный, СЗ - северо-западный.
  • Видимость - горизонтальная дальность видимости в метрах или километрах. При видимости от 1 до 10 км при отсутствии осадков обычно наблюдается дымка, при ухудшении видимости до 1 км и менее - туман. В сухую погоду видимость может ухудшаться дымом, пылью или мглою.
  • Явления - указаны атмосферные явления, наблюдавшиеся в срок или в последний час перед сроком.
  • Солнечная радиация - мощность потока солнечного излучения на поверхность земли и предметов в Вт/м2.
  • T - Температура воздуха - температура, измеренная на высоте 2 м над землей.
  • Td - Температура точки росы - температура, при понижении до которой содержащийся в воздухе водяной пар достигнет насыщения.
  • f - Относительная влажность воздуха - влажноcть воздуха, измеренная на высоте 2 м над землей.
  • Te - Эффективная температура - температура, которую ощущает одетый по сезону человек в тени. Характеристика душности погоды. При расчете учитывается влияние влажности воздуха и скорости ветра на теплоощущения человека.
  • Tes - Эффективная температура на солнце - температура, которую ощущает человек, с поправкой на солнечный нагрев. Характеристика знойности погоды. Зависит от высоты солнца над горизонтом, облачности и скорости ветра. Ночью, в пасмурную погоду, а также при ветре 12 м/с и более поправка равна нулю.
  • P - Атмосферное давление - приведенное к уровню моря атмосферное давление.
  • Po - Атмосферное давление - измеренное на уровне метеостанции атмосферное давление.
  • Tmin - Минимальная температура - минимум температуры воздуха на высоте 2 м над землей.
  • Tmax - Максимальная температура - максимум температуры воздуха на высоте 2 м над землей.
  • R - Количество осадков - Количество выпавших осадков за период времени, мм. При наведении курсора мыши на число - период времени, за который выпало указанное количество осадков.